カタログに戻る

COSMOS 252 DEB

運用中LEO
NORAD 3843·DEBRIS·🇷🇺 Russia

打ち上げ Nov 1, 1968 から Baikonur Cosmodrome

Loading…

次のパス (今後24時間)

TLE

最新Source: Space-Track

元期: Sep 13, 2026, 22:06 UTC

1  3843U 68097BG  26256.92083708  .00000881  00000-0  94857-3 0  9999
2  3843  62.2604 235.6162 0689308 128.9147 237.5409 13.04633587678899

AllMySatでCOSMOS 252 DEBをリアルタイム追跡

Download on the App Store